Regional Weather Roundup
Issued by NWS

Home | Current Version | Previous Version | Text Only | Print | Product List | Glossary Off
Versions: 1 2 3 4 5 6 7 8 9 10 11 12 13 14 15 16 17 18 19 20 21 22 23 24 25 26 27 28 29 30 31 32 33 34 35 36 37 38 39 40 41 42 43 44 45 46 47 48 49 50

000
ASUS45 KBOU 250907
RWRCO

WEATHER ROUNDUP FOR COLORADO
NATIONAL WEATHER SERVICE DENVER/BOULDER CO
300 AM MDT SAT APR 25 2015

NOTE: "FAIR" INDICATES FEW OR NO CLOUDS BELOW 12000 FEET WITH NO
SIGNIFICANT WEATHER AND/OR OBSTRUCTIONS TO VISIBILITY.

COZ001>005-013-030-031-251000-
...NORTHWEST COLORADO...

CITY           SKY/WX    TMP DP  RH WIND       PRES   REMARKS
CRAIG          MOCLDY    40  29  64 E3        29.77S
HAYDEN         CLOUDY    41  28  60 SE6       29.79S
MEEKER         CLOUDY    47  30  51 VRB3      29.78F
MOUNT WERNER   NOT AVBL
STEAMBOAT SPGS CLOUDY    36  32  85 CALM      29.80S
WALDEN         CLEAR     30  25  80 SE9       29.82S WCI  22
$$

COZ006>008-011-251000-
...WEST CENTRAL VALLEYS...

CITY           SKY/WX    TMP DP  RH WIND       PRES   REMARKS
GRAND JUNCTION CLOUDY    50  33  52 SE17      29.76S
MONTROSE       CLOUDY    40  33  76 SE6       29.86S
EAGLE          PTCLDY    32  28  86 CALM      29.87S
RIFLE          CLOUDY    39  32  76 CALM      29.80F
DELTA          NOT AVBL
NUCLA          CLOUDY    50  32  50 S12       29.88S
$$

COZ017>023-064>068-251000-
...SOUTHWEST COLORADO...

CITY           SKY/WX    TMP DP  RH WIND       PRES   REMARKS
DURANGO        CLOUDY    38  37  97 CALM      29.95F
CORTEZ         CLOUDY    49  36  61 S18       29.91S
PAGOSA SPRINGS CLOUDY    36  34  93 CALM      29.98F
TELLURIDE      CLOUDY    35  27  72 CALM      29.97S
WOLF CREEK PAS NOT AVBL
$$

COZ009-010-012-014-032>034-037-058>063-251000-
...CENTRAL COLORADO...

CITY           SKY/WX    TMP DP  RH WIND       PRES   REMARKS
ASPEN          PTCLDY    32  24  72 S5        29.85F WCI  27
BUENA VISTA    CLEAR     34  23  64 N7        29.86S WCI  28
COPPER MTN     CLOUDY    30  19  64 SW12G23   29.96S WCI  21
BERTHOUD PASS  FAIR      21  12  68 W22G33    29.95R WCI   5
COTTONWOOD PAS CLEAR     37  19  48 W10G22    29.91R
GUNNISON       CLEAR     27  21  80 CALM      29.95S
KREMMLING      PTCLDY    34  27  75 E5        29.86S WCI  30
LEADVILLE      PTCLDY    26  17  68 NE8       29.90S WCI  18
MONARCH PASS   MOCLDY    23  19  86 MISG      30.07F
SALIDA         CLEAR     45  24  43 W12G17    29.93S
SUNLIGHT       PTCLDY    30  27  86 CALM      29.95F
WILKERSON PASS MOCLDY    27  18  69 W8        29.94S WCI  18
$$

COZ069>075-251000-
...SAN LUIS VALLEY/SANGRE DE CRISTO MOUNTAINS...

CITY           SKY/WX    TMP DP  RH WIND       PRES   REMARKS
ALAMOSA        CLEAR     24  19  81 E8        29.92S WCI  15
LA VETA PASS   CLEAR     28  23  80 S17G30    29.93R WCI  16
SAGUACHE       CLEAR     30  23  74 NW9       29.92S WCI  22
$$

COZ035-036-038>040-251000-
...NORTHERN COLORADO FRONT RANGE...

CITY           SKY/WX    TMP DP  RH WIND       PRES   REMARKS
DENVER INTL AP CLEAR     45  28  51 S12       29.70S
DMNS CITY PARK   N/A     45  28  51 S5        29.71R
AURORA         PTCLDY    42  27  56 S8        29.72S
FRONT RANGE AP NOT AVBL
ERIE MUNI ARPT CLEAR     37  33  85 SW3       29.69S
BOULDER MUN AP CLEAR     43  32  65 CALM      29.69R
CENTENNIAL     PTCLDY    43  26  51 SW8       29.72S
BROOMFIELD     CLEAR     46  27  46 S5        29.71R
FORT COLLINS   CLEAR     43  32  65 CALM      29.71R
LONGMONT       CLEAR     39  33  80 N3        29.71R
$$

COZ041-046-047-076>085-087-088-251000-
...PIKES PEAK/PALMER DIVIDE AND SOUTHERN FOOTHILLS...

CITY           SKY/WX    TMP DP  RH WIND       PRES   REMARKS
COLO. SPRINGS  PTCLDY    44  24  45 N6        29.76S
A. F. ACADEMY  CLEAR     47  20  35 N13G18    29.76S
ELLICOTT       CLEAR    N/A N/A N/A N5        29.75S
FALCON         CLEAR     42  21  42 NW10      29.79R
FORT CARSON    CLEAR     42  29  60 N6        29.74S
LIMON          CLEAR     37  33  85 N6        29.72R
MONUMENT HILL  CLEAR     39  21  48 SW8       29.77S
TRINIDAD       CLEAR     43  23  45 W17       29.78R
$$

COZ042>045-048>051-090-091-251000-
...NORTHEAST COLORADO...

CITY           SKY/WX    TMP DP  RH WIND       PRES   REMARKS
GREELEY ARPT   CLEAR     45  30  57 NW5       29.70R
AKRON          CLOUDY    43  37  79 W9        29.67R
BURLINGTON     CLOUDY    46  39  76 NW7       29.66R
WRAY           MOCLDY    46  41  82 W9        29.63S
STERLING       CLOUDY    48  37  66 N6        29.64R
HOLYOKE        MOCLDY    43  39  87 W6        29.63R
FORT MORGAN    CLOUDY    51  32  47 NW13      29.68R
$$

COZ086-089-092>099-251000-
...SOUTHEAST COLORADO...

CITY           SKY/WX    TMP DP  RH WIND       PRES   REMARKS
PUEBLO         CLEAR     44  31  60 SW6       29.72S
LA JUNTA       CLEAR     48  32  53 W16       29.69F
LAMAR          CLEAR     45  40  82 W9        29.66S
SPRINGFIELD      N/A     44  35  70 W13       29.70R
$$



USA.gov is the U.S. government's official web portal to all federal, state and local government web resources and services.